| time (UTC) | temp F | wind direction | speed knots | gust knots | rain 1hr in | rain 24hr in | rain mn in | humidity % | barometer mb |
| 20260504151104 | 53 | 0 | 0.0 | 0.0 | 0.04 | 0.11 | 0.11 | 94 | 1014.4 |
| 20260504141100 | 55 | 0 | 0.0 | 0.0 | 0.00 | 0.07 | 0.07 | 88 | 1014.4 |
| 20260504140110 | 55 | 0 | 0.0 | 0.0 | 0.00 | 0.07 | 0.07 | 90 | 1014.4 |
| 20260504081101 | 55 | 0 | 0.0 | 0.0 | 0.00 | 0.06 | 0.00 | 84 | 1014.7 |
| 20260504045053 | 44 | 0 | 0.0 | 0.0 | 0.00 | 0.06 | 0.00 | 10 | 1015.1 |
| 20260504044058 | 42 | 0 | 0.0 | 0.0 | 0.00 | 0.06 | 0.00 | 10 | 1015.1 |
| 20260504043057 | 42 | 0 | 0.0 | 0.0 | 0.00 | 0.06 | 0.00 | 10 | 1015.2 |
| 20260504042055 | 42 | 0 | 0.0 | 0.0 | 0.00 | 0.06 | 0.00 | 10 | 1015.1 |
| 20260504041055 | 42 | 0 | 0.0 | 0.0 | 0.00 | 0.06 | 0.00 | 10 | 1015.2 |
| 20260504040054 | 42 | 0 | 0.0 | 0.0 | 0.00 | 0.06 | 0.00 | 10 | 1015.2 |
| 20260504035056 | 42 | 0 | 0.0 | 0.0 | 0.00 | 0.06 | 0.00 | 10 | 1015.1 |
| 20260504034057 | 42 | 0 | 0.0 | 0.0 | 0.00 | 0.06 | 0.00 | 10 | 1015.1 |
| 20260504033056 | 42 | 0 | 0.0 | 0.0 | 0.00 | 0.06 | 0.00 | 10 | 1015.0 |
| 20260504032055 | 41 | 0 | 0.0 | 0.0 | 0.00 | 0.06 | 0.00 | 10 | 1015.1 |
| 20260504031056 | 41 | 0 | 0.0 | 0.0 | 0.00 | 0.06 | 0.00 | 10 | 1015.1 |
| 20260504030055 | 41 | 0 | 0.0 | 0.0 | 0.00 | 0.06 | 0.00 | 10 | 1015.0 |
| 20260504024053 | 41 | 0 | 0.0 | 0.0 | 0.00 | 0.06 | 0.00 | 10 | 1015.0 |
| 20260504023055 | 41 | 0 | 0.0 | 0.0 | 0.00 | 0.06 | 0.00 | 10 | 1015.1 |
| 20260504021057 | 42 | 0 | 0.0 | 0.0 | 0.00 | 0.06 | 0.00 | 10 | 1015.1 |
| 20260504020056 | 42 | 0 | 0.0 | 0.0 | 0.00 | 0.06 | 0.00 | 10 | 1015.2 |
| 20260504015058 | 42 | 0 | 0.0 | 0.0 | 0.00 | 0.06 | 0.00 | 10 | 1015.3 |
| 20260504014056 | 42 | 0 | 0.0 | 0.0 | 0.00 | 0.06 | 0.00 | 10 | 1015.4 |
| 20260504012055 | 43 | 0 | 0.0 | 0.0 | 0.00 | 0.06 | 0.00 | 10 | 1015.3 |
| 20260504011057 | 43 | 0 | 0.0 | 0.0 | 0.00 | 0.06 | 0.00 | 10 | 1015.3 |
| 20260504010056 | 43 | 0 | 0.0 | 0.0 | 0.00 | 0.06 | 0.00 | 10 | 1015.3 |
| 20260504005057 | 43 | 0 | 0.0 | 0.0 | 0.00 | 0.06 | 0.00 | 10 | 1015.2 |
| 20260504004057 | 43 | 0 | 0.0 | 0.0 | 0.00 | 0.06 | 0.00 | 10 | 1015.2 |
| 20260504003056 | 44 | 0 | 0.0 | 0.0 | 0.00 | 0.06 | 0.00 | 10 | 1015.2 |
| 20260504002056 | 44 | 0 | 0.0 | 0.0 | 0.00 | 0.06 | 0.00 | 10 | 1015.2 |
| 20260504001055 | 44 | 0 | 0.0 | 0.0 | 0.00 | 0.06 | 0.00 | 10 | 1015.1 |
| 20260503234109 | 44 | 0 | 0.0 | 0.0 | 0.00 | 0.06 | 0.00 | 99 | 1014.9 |
| 20260503233107 | 44 | 0 | 0.0 | 0.0 | 0.00 | 0.06 | 0.00 | 99 | 1014.9 |
| 20260503231104 | 44 | 0 | 0.0 | 0.0 | 0.00 | 0.06 | 0.00 | 99 | 1015.0 |
| 20260503230106 | 44 | 0 | 0.0 | 0.0 | 0.00 | 0.06 | 0.00 | 99 | 1015.1 |
| 20260503225105 | 44 | 0 | 0.0 | 0.0 | 0.00 | 0.06 | 0.00 | 99 | 1015.2 |
| 20260503224108 | 44 | 0 | 0.0 | 0.0 | 0.00 | 0.06 | 0.00 | 99 | 1015.3 |
| 20260503223108 | 44 | 0 | 0.0 | 0.0 | 0.00 | 0.06 | 0.00 | 99 | 1015.3 |
| 20260503222108 | 44 | 0 | 0.0 | 0.0 | 0.00 | 0.06 | 0.00 | 98 | 1015.2 |
| 20260503221107 | 44 | 0 | 0.0 | 0.0 | 0.00 | 0.06 | 0.00 | 98 | 1015.1 |
| 20260503220106 | 45 | 0 | 0.0 | 0.0 | 0.00 | 0.06 | 0.00 | 98 | 1015.0 |
| 20260503215112 | 45 | 0 | 0.0 | 0.0 | 0.00 | 0.06 | 0.06 | 98 | 1015.0 |
| 20260503214109 | 45 | 0 | 0.0 | 0.0 | 0.00 | 0.06 | 0.06 | 98 | 1015.1 |
| 20260503212108 | 46 | 0 | 0.0 | 0.0 | 0.00 | 0.06 | 0.06 | 98 | 1014.8 |
| 20260503210103 | 47 | 0 | 0.0 | 0.0 | 0.00 | 0.06 | 0.06 | 98 | 1014.8 |
| 20260503205110 | 47 | 0 | 0.0 | 0.0 | 0.00 | 0.06 | 0.06 | 98 | 1014.9 |
| 20260503204111 | 47 | 0 | 0.0 | 0.0 | 0.00 | 0.06 | 0.06 | 98 | 1014.9 |
| 20260503203106 | 47 | 0 | 0.0 | 0.0 | 0.00 | 0.06 | 0.06 | 97 | 1014.9 |
| 20260503202107 | 47 | 0 | 0.0 | 0.0 | 0.00 | 0.06 | 0.06 | 96 | 1014.8 |
| 20260503201114 | 48 | 0 | 0.0 | 0.0 | 0.00 | 0.06 | 0.06 | 96 | 1014.9 |
| 20260503200111 | 48 | 0 | 0.0 | 0.0 | 0.00 | 0.06 | 0.06 | 96 | 1014.8 |
| 20260503195110 | 49 | 0 | 0.0 | 0.0 | 0.00 | 0.06 | 0.06 | 96 | 1014.8 |
| 20260503192104 | 50 | 0 | 0.0 | 0.0 | 0.00 | 0.06 | 0.06 | 92 | 1014.6 |
| 20260503191102 | 51 | 0 | 0.0 | 0.0 | 0.00 | 0.06 | 0.06 | 90 | 1014.5 |
| 20260503190109 | 53 | 0 | 0.0 | 0.0 | 0.00 | 0.06 | 0.06 | 87 | 1014.3 |
| 20260503185105 | 55 | 0 | 0.0 | 0.0 | 0.00 | 0.06 | 0.06 | 85 | 1014.2 |
| 20260503184105 | 55 | 0 | 0.0 | 0.0 | 0.00 | 0.06 | 0.06 | 83 | 1013.9 |
| 20260503183103 | 56 | 0 | 0.0 | 0.0 | 0.00 | 0.06 | 0.06 | 82 | 1013.8 |
| 20260503182109 | 56 | 0 | 0.0 | 0.0 | 0.00 | 0.06 | 0.06 | 82 | 1013.8 |
| 20260503175102 | 57 | 0 | 0.0 | 0.0 | 0.00 | 0.06 | 0.06 | 81 | 1013.6 |
| 20260503174105 | 57 | 0 | 0.0 | 0.0 | 0.00 | 0.06 | 0.06 | 81 | 1013.6 |
| 20260503173104 | 57 | 0 | 0.0 | 0.0 | 0.00 | 0.06 | 0.06 | 81 | 1013.6 |
| 20260503172104 | 57 | 0 | 0.0 | 0.0 | 0.00 | 0.06 | 0.06 | 82 | 1013.6 |